Regional Weather Roundup
Issued by NWS Grand Forks, ND

Home | Current Version | Previous Version | Text Only | Print | Product List | Glossary Off
Versions: 1 2 3 4 5 6 7 8 9 10 11 12 13 14 15 16 17 18 19 20 21 22 23 24 25 26 27 28 29 30 31 32 33 34 35 36 37 38 39 40 41 42 43 44 45 46 47 48 49 50

000
ASUS43 KFGF 171610
RWRFGF
PRAIRIE TO PINES  WEATHER ROUNDUP
NATIONAL WEATHER SERVICE EASTERN NORTH DAKOTA/GRAND FORKS ND
1000 AM CST WED DEC 17 2014

 **SATELLITE DATA USED TO AUGMENT SKY COVER AT AUTOMATED STATIONS**
 *****  WEATHER ACROSS EASTERN NORTH DAKOTA  *****

CITY           SKY/WX    TMP DP  RH WIND       PRES   REMARKS
GRAND FORKS    MOSUNNY    5   2  87 NW5       30.39R WCI  -4
GRAND FRKS AFB MOSUNNY    6   6  97 N5        30.39R WCI  -3
DEVILS LAKE    MOSUNNY    5  -2  72 CALM      30.32R
FARGO          MOSUNNY    8   3  80 NW6       30.39R WCI  -2
WAHPETON ARPT  MOSUNNY    9   3  78 NW3       30.38S
$$

 ***** WEATHER ACROSS CENTRAL AND WESTERN NORTH DAKOTA  *****

CITY           SKY/WX    TMP DP  RH WIND       PRES   REMARKS
BISMARCK       LGT SNOW  14   9  80 SE9       30.29S WCI   2
MINOT          CLOUDY    12   8  84 SE7       30.25S FOG     WCI   1
JAMESTOWN      MOSUNNY    6   4  91 CALM      30.32R
MINOT AFB      CLOUDY    11  10  97 SE9       30.26R WCI  -2
GARRISON         N/A     14  10  84 SE13      30.24R WCI   0
WILLISTON      LGT SNOW  18  12  77 SE12      30.18R WCI   5
DICKINSON      LGT SNOW  16  11  80 SE15      30.13S WCI   1
HETTINGER      CLOUDY    15  12  88 SE14      30.14S FOG     WCI   0
$$

 *****  OTHER AIRPORT OBSERVATIONS IN OUR AREA  *****

CITY           SKY/WX    TMP DP  RH WIND       PRES   REMARKS
WALHALLA         N/A      1   1 100 CALM      30.38S
GRAFTON AIRPOR NOT AVBL
VALLEY CITY AR FAIR       7   7 100 CALM      30.34S
CANDO          FOG        0  -4  85 CALM      30.33S VSB 1/2
CAVALIER APRT  FAIR       5   1  85 CALM      30.39R
GWINNER        MOSUNNY   10   9  92 MISG      30.37R
ROLLA          FAIR       3   0  85 SW7       30.29S WCI  -9
 ***** THE ABOVE OBSERVATIONS ARE NON NWS ARE NOT QUALITY
       CONTROLLED AND MAY MIS-REPORT RAIN FOR SNOW...
$$

  *****  WEATHER ACROSS NORTHERN MINNESOTA  *****

CITY           SKY/WX    TMP DP  RH WIND       PRES   REMARKS
FLAG ISLAND    MOSUNNY    7   3  85 N6        30.35R WCI  -3
WARROAD        MOSUNNY    7   1  78 N3        30.35R
ROSEAU         MOSUNNY    3  -2  78 CALM      30.35S
HALLOCK        MOSUNNY    3   1  92 N3        30.38S
THF RVR FALLS  MOSUNNY    9   5  85 CALM      30.34R
BAUDETTE       CLOUDY    12   6  77 N5        30.33R WCI   4
WASKISH        MOSUNNY   16  10  79 CALM      30.32R
CROOKSTON      MOSUNNY    5   1  85 N5        30.39R WCI  -4
STEPHEN NDAWN    N/A      3   0  85 N5          N/A  WCI  -6
GREENBUSH NDAW   N/A      5   1  85 NE3         N/A
$$
  *****  WEATHER ACROSS CENTRAL AND WEST MINNESOTA  *****

CITY           SKY/WX    TMP DP  RH WIND       PRES   REMARKS
FOSSTON        CLOUDY     5   1  85 CALM      30.32R
BEMIDJI        FLURRIES  11   7  84 N6        30.29R WCI   2
PARK RAPIDS    MOSUNNY   11   6  81 N6        30.28R WCI   1
ELBOW LAKE     FAIR       5   2  89 NW6       30.34S WCI  -6
WADENA         SUNNY      7   3  85 NW5       30.30R WCI  -2
DETROIT LAKES  FLURRIES   7   5  92 NW5       30.33R WCI  -2
MOORHEAD       PTSUNNY    7   7 100 NW5       30.39R WCI  -2
FERGUS FALLS   MOSUNNY    3   0  85 N7        30.39S WCI  -9
MORRIS MN      MOSUNNY    9   3  78 NW8       30.35R WCI  -4
STAPLES        MOSUNNY    9   7  92 NW6       30.29R WCI  -1
$$
  *****  WEATHER ELSEWHERE ACROSS MINNESOTA  *****

CITY           SKY/WX    TMP DP  RH WIND       PRES   REMARKS
DULUTH         MOSUNNY   13   6  74 N10       30.22R WCI   0
INTRNTL FALLS  MOSUNNY   14   6  70 NE6       30.32R WCI   5
ELY            MOSUNNY   12   9  85 NE8       30.25R WCI   1
CLOQUET        MOSUNNY   12   7  79 N10       30.24R WCI  -1
WHEATON        MOSUNNY    7   3  85 NW6       30.39S WCI  -3
BRAINERD       CLOUDY    12   9  87 CALM      30.29R FOG
HIBBING        MOSUNNY   14   6  70 N14       30.25R WCI  -1
ALEXANDRIA     MOSUNNY    6   3  87 NW8       30.31R WCI  -7
SAINT CLOUD    MOSUNNY   13   7  77 W9        30.32R WCI   1
MINNEAPOLIS    MOSUNNY   13   7  77 W9        30.33R WCI   1
$$

  *****  WEATHER ACROSS SOUTH DAKOTA  *****

CITY           SKY/WX    TMP DP  RH WIND       PRES   REMARKS
SIOUX FALLS    MOSUNNY   11   7  84 CALM      30.34R
BROOKINGS      NOT AVBL
WATERTOWN      MOSUNNY    8   4  83 NW3       30.29S
HURON          PTSUNNY    2  -1  88 CALM      30.36R FOG
SISSETON         N/A      6   3  87 NW6       30.36S WCI  -4
ABERDEEN       MOSUNNY    9   5  84 E5        30.35R FOG     WCI   1
MITCHELL       MOSUNNY    5   2  87 CALM      30.36S
PIERRE         CLOUDY    17  14  88 SE13      30.25S WCI   4
MOBRIDGE       CLOUDY    16  11  80 SE10      30.24S WCI   4
RAPID CITY     CLOUDY    20  17  88 SE8       30.05R WCI  10
$$

  *****  SOME WEATHER IN NEARBY STATES *****

CITY           SKY/WX    TMP DP  RH WIND       PRES   REMARKS
GLASGOW MT     CLOUDY    18  15  88 E14       30.06S WCI   4
GREAT FALLS MT CLOUDY    23  21  92 SW5       29.88S WCI  17
CHEYENNE WY    CLOUDY    35  24  64 SW5       29.95R
SCOTTSBLUFF NE CLOUDY    17  16  95 SE3       30.02S
OMAHA NE       PTSUNNY   20  13  74 N6        30.37S WCI  12
DES MOINES IA  MOSUNNY   19  11  70 N8        30.36R WCI   9
DAVENPORT IA   CLOUDY    21  15  78 W13       30.32R WCI   9
CHICAGO IL     CLOUDY    26  17  68 NW12      30.23R WCI  16
EAU CLAIRE WI  CLOUDY    18  12  77 W8        30.27R WCI   8
LA CROSSE WI   CLOUDY    21  12  68 NW10      30.29S WCI  10
$$

  *****  SOME NATIONAL WEATHER *****

CITY           SKY/WX    TMP DP  RH WIND       PRES   REMARKS
LA GUARDIA NY  MOSUNNY   50  41  71 NW14      29.84F
RALEIGH NC     MOSUNNY   54  37  52 NW8       30.11F
ATLANTA GA     PTSUNNY   46  37  71 NW12      30.22S
NEW ORLEANS LA PTSUNNY   53  41  63 NE9       30.30S
OKLAHOMA CITY  CLOUDY    37  30  75 SE13      30.25R
ALBUQUERQUE NM CLOUDY    34  34 100 NW3       30.04S FOG
SALT LAKE CITY PTSUNNY   32  29  88 CALM      30.00S
LOS ANGELES CA PTSUNNY   55  51  86 NE6       30.02R
BOISE ID       MOCLDY    30  29  96 CALM      29.99R
SEATTLE WA     LGT RAIN  46  37  71 E6        29.81S
$$

*** WEATHER ACROSS MANITOBA...SASKATCHEWAN AND ONTARIO ***
                ***ONTARIO***

CITY           SKY/WX    TMP DP  RH WIND       PRES   REMARKS
GERALDTON      PTSUNNY    1  -6  71 N7        30.24R WCI -11
THUNDER BAY    PTSUNNY   16   9  73 N5        30.28R WCI   9
SIOUX LOOKOUT  MOSUNNY    1  -4  78 N3        30.35R
TORONTO        NOT AVBL
BIG TROUT LK   PTCLDY    -4  -8  84 W10       30.35R WCI -21
PICKLE LAKE    MOSUNNY   -4  -9  77 NW5       30.35S WCI -15
DRYDEN         SUNNY      3   0  85 NE6       30.34R WCI  -8
KENORA         NOT AVBL
$$
                *** MANITOBA***

CITY           SKY/WX    TMP DP  RH WIND       PRES   REMARKS
BRANDON        FOG       -2  -6  84 CALM      30.34R VSB 3/8
DAUPHIN        CLEAR      1  -2  85 SW6       30.33R WCI -10
ISLAND LAKE    PTCLDY     5   1  85 S6        30.35R WCI  -6
PILOT MOUND      N/A     -4  -8  84 S1          N/A
THE PAS        FLURRIES  18  12  79 S8        30.22S WCI   7
THOMPSON       NOT AVBL
WINNIPEG       PTCLDY     1  -4  78 CALM      30.41R
LYNN LAKE      FLURRIES  14  12  92 S8        30.09S WCI   3
CHURCHILL      CLEAR      5   1  85 SW9       30.11R WCI  -9
$$
                ***SASKATCHEWAN***

CITY           SKY/WX    TMP DP  RH WIND       PRES   REMARKS
ESTEVAN        LGT SNOW  18  12  79 SE10G17   30.19R DRFTSNOWWCI   6
KINDERSLEY     NOT AVBL
LLOYDMINSTER   NOT AVBL
PRINCE ALBERT  NOT AVBL
REGINA         CLOUDY    18  14  86 SE18      30.13S WCI   2
YORKTON        FLURRIES  16  10  79 S10       30.21R WCI   3
N. BATTLEFORD  CLOUDY    18  16  93 S12       30.04S WCI   5
LA RONGE       NOT AVBL
SASKATOON      CLOUDY    18  16  93 S15       30.08F WCI   3
SWIFT CURRENT  CLOUDY    16  14  93 S16G24    29.95F WCI   0
$$
NOTE: THESE ARE AUTOMATED STATIONS WITH LIMITED QUALITY CONTROL
      "FAIR" INDICATES FEW OR NO CLOUDS BELOW 12,000 FEET WITH NO
      SIGNIFICANT WEATHER AND/OR OBSTRUCTIONS TO VISIBILITY.
      SKY/WX - SKY CONDITION AND SIGNIFICANT WEATHER.
      TMP - AIR TEMPERATURE.    DP   - DEWPOINT TEMPERATURE.
      RH  - RELATIVE HUMIDITY.  PRES - PRESSURE.
      HX  - HEAT INDEX.         WCI  - WIND CHILL INDEX.
$



USA.gov is the U.S. government's official web portal to all federal, state and local government web resources and services.